Weather History for Buffalo, WY

Change the Weather History Date:

Tuesday, December 4, 2012

  Actual Average Record
Temperature  
Mean Temperature 38 °F 26 °F  
Max Temperature 51 °F 37 °F 61 °F (2007)
Min Temperature 24 °F 16 °F -9 °F (2013)
Degree Days  
Heating Degree Days 27 39  
Month to date heating degree days 86 153  
Since 1 July heating degree days 1643 1987  
Cooling Degree Days 0 0  
Month to date cooling degree days 0 0  
Year to date cooling degree days 795 492  
Moisture  
Dew Point 17 °F    
Average Humidity 45    
Maximum Humidity 68    
Minimum Humidity 21    
Precipitation  
Precipitation 0.00 in 0.02 in 0.02 in (2011)
Month to date precipitation 0.00 0.08  
Year to date precipitation 8.82 13.13  
Sea Level Pressure  
Sea Level Pressure 30.09 in    
Wind  
Wind Speed 4 mph (SW)    
Max Wind Speed 18 mph    
Max Gust Speed 24 mph    
Visibility 10 miles    
Events      
T = Trace of Precipitation, MM = Missing Value Source: NWS Daily Summary

Daily Weather History Graph

Daily Weather History Graph

Search for Another Location

Airport:

Trip Planner

Search our weather history database for the weather conditions in past years. The results will help you decide how hot, cold, wet, or windy it might be!

Date:

Astronomy

Dec. 04, 2012 Rise Set
Actual Time 7:26 AM MST 4:27 PM MST
Civil Twilight 6:53 AM MST 5:00 PM MST
Nautical Twilight 6:17 AM MST 5:37 PM MST
Astronomical Twilight 5:42 AM MST 6:12 PM MST
Moon 10:27 PM MST (12/4) 11:14 AM MST (12/4)
Length of Visible Light 10h 07m
Length of Day
9h 01m
Waning Gibbous, 69% of the Moon is Illuminated
Dec 4
Waning Gibbous
Dec 6
Last Quarter
Dec 13
New
Dec 19
First Quarter
Dec 28
Full

Hourly Weather History & Observations

Time (MST) Temp. Windchill Dew Point Humidity Pressure Visibility Wind Dir Wind Speed Gust Speed Precip Events Conditions
12:53 AM 34.0 °F 29.8 °F 10.0 °F 37% 30.16 in 10.0 mi SW 4.6 mph - N/A   Clear
1:53 AM 30.0 °F 25.2 °F 10.9 °F 45% 30.18 in 10.0 mi West 4.6 mph - N/A   Clear
2:53 AM 30.0 °F 22.4 °F 12.9 °F 49% 30.19 in 10.0 mi WSW 8.1 mph - N/A   Clear
3:53 AM 32.0 °F 28.7 °F 10.9 °F 42% 30.19 in 10.0 mi SW 3.5 mph - N/A   Clear
4:53 AM 34.0 °F - 10.9 °F 38% 30.19 in 10.0 mi Calm Calm - N/A   Clear
5:53 AM 28.9 °F 25.2 °F 10.9 °F 47% 30.21 in 10.0 mi SW 3.5 mph - N/A   Clear
6:53 AM 24.1 °F 18.2 °F 15.1 °F 69% 30.21 in 10.0 mi South 4.6 mph - N/A   Clear
7:53 AM 24.1 °F 17.0 °F 15.1 °F 69% 30.19 in 10.0 mi South 5.8 mph - N/A   Clear
8:53 AM 28.0 °F 20.8 °F 18.0 °F 66% 30.16 in 10.0 mi SSE 6.9 mph - N/A   Partly Cloudy
9:53 AM 33.1 °F 28.7 °F 19.0 °F 56% 30.12 in 10.0 mi South 4.6 mph - N/A   Scattered Clouds
10:53 AM 39.9 °F - 21.9 °F 49% 30.04 in 10.0 mi Calm Calm - N/A   Mostly Cloudy
11:53 AM 36.0 °F 28.0 °F 23.0 °F 59% 30.04 in 10.0 mi NNW 11.5 mph 24.2 mph N/A   Partly Cloudy
12:53 PM 44.1 °F 40.8 °F 15.1 °F 31% 30.00 in 10.0 mi NW 5.8 mph - N/A   Mostly Cloudy
1:53 PM 50.0 °F - 14.0 °F 24% 29.99 in 10.0 mi Calm Calm - N/A   Mostly Cloudy
2:53 PM 50.0 °F - 12.0 °F 22% 30.01 in 10.0 mi NE 4.6 mph - N/A   Clear
3:53 PM 46.0 °F - 12.0 °F 25% 30.04 in 10.0 mi Calm Calm - N/A   Clear
4:53 PM 44.1 °F 42.5 °F 14.0 °F 30% 30.05 in 10.0 mi SW 3.5 mph - N/A   Clear
5:53 PM 37.9 °F 34.4 °F 18.0 °F 45% 30.06 in 10.0 mi SW 4.6 mph - N/A   Clear
6:53 PM 37.9 °F 34.4 °F 19.0 °F 47% 30.08 in 10.0 mi West 4.6 mph - N/A   Clear
7:53 PM 39.9 °F 34.5 °F 21.0 °F 47% 30.06 in 10.0 mi WSW 8.1 mph - N/A   Clear
8:53 PM 36.0 °F - 21.9 °F 57% 30.05 in 10.0 mi Calm Calm - N/A   Clear
9:53 PM 37.0 °F - 24.1 °F 59% 30.00 in 10.0 mi Calm Calm - N/A   Clear
10:53 PM 37.9 °F - 23.0 °F 55% 29.98 in 10.0 mi Calm Calm - N/A   Clear
11:53 PM 37.9 °F 35.5 °F 24.1 °F 57% 29.96 in 10.0 mi Variable 3.5 mph - N/A   Clear